| time (UTC) | temp F | wind direction | speed MPH | gust MPH | rain 1hr in | rain 24hr in | rain mn in | humidity % | barometer mb |
| 20260504173017 | 51 | 279 | 4.0 | 6.0 | 0.00 | 0.00 | 0.00 | 58 | 1019.2 |
| 20260504172514 | 51 | 345 | 3.0 | 6.0 | 0.00 | 0.00 | 0.00 | 53 | 1019.4 |
| 20260504172016 | 51 | 289 | 2.0 | 11.0 | 0.00 | 0.00 | 0.00 | 52 | 1019.4 |
| 20260504171515 | 51 | 293 | 3.0 | 11.0 | 0.00 | 0.00 | 0.00 | 53 | 1019.5 |
| 20260504171014 | 50 | 0 | 3.0 | 6.0 | 0.00 | 0.00 | 0.00 | 53 | 1019.5 |
| 20260504151012 | 47 | 10 | 4.0 | 10.0 | 0.00 | 0.00 | 0.00 | 55 | 1019.5 |
| 20260504150512 | 48 | 39 | 4.0 | 10.0 | 0.00 | 0.00 | 0.00 | 56 | 1019.6 |
| 20260504141011 | 44 | 245 | 0.0 | 3.0 | 0.00 | 0.00 | 0.00 | 63 | 1019.8 |
| 20260504140511 | 44 | 245 | 1.0 | 3.0 | 0.00 | 0.00 | 0.00 | 63 | 1019.7 |
| 20260504110505 | 45 | 228 | 3.0 | 12.0 | 0.00 | 0.00 | 0.00 | 64 | 1018.2 |
| 20260504100504 | 46 | 90 | 3.0 | 4.0 | 0.00 | 0.00 | 0.00 | 57 | 1016.2 |
| 20260504082003 | 46 | 90 | 0.0 | 2.0 | 0.00 | 0.00 | 0.00 | 58 | 1016.1 |
| 20260504081502 | 45 | 90 | 0.0 | 1.0 | 0.00 | 0.00 | 0.00 | 60 | 1016.1 |
| 20260504081003 | 44 | 90 | 0.0 | 0.0 | 0.00 | 0.00 | 0.00 | 62 | 1016.1 |
| 20260504080502 | 43 | 90 | 0.0 | 0.0 | 0.00 | 0.00 | 0.00 | 64 | 1016.1 |
| 20260504050458 | 49 | 138 | 0.0 | 2.0 | 0.00 | 0.00 | 0.00 | 55 | 1016.6 |
| 20260504045959 | 50 | 138 | 0.0 | 3.0 | 0.00 | 0.00 | 0.00 | 55 | 1016.6 |
| 20260504045458 | 50 | 138 | 1.0 | 3.0 | 0.00 | 0.00 | 0.00 | 53 | 1016.6 |
| 20260504044957 | 49 | 138 | 2.0 | 4.0 | 0.00 | 0.00 | 0.00 | 54 | 1016.4 |
| 20260504044457 | 48 | 138 | 3.0 | 4.0 | 0.00 | 0.00 | 0.00 | 55 | 1016.4 |
| 20260504043457 | 47 | 138 | 1.0 | 3.0 | 0.00 | 0.00 | 0.00 | 58 | 1016.4 |
| 20260504042958 | 47 | 138 | 0.0 | 1.0 | 0.00 | 0.00 | 0.00 | 59 | 1016.4 |
| 20260504042457 | 47 | 138 | 0.0 | 1.0 | 0.00 | 0.00 | 0.00 | 61 | 1016.4 |
| 20260504041957 | 47 | 138 | 0.0 | 1.0 | 0.00 | 0.00 | 0.00 | 58 | 1016.4 |
| 20260504040957 | 47 | 138 | 0.0 | 0.0 | 0.00 | 0.00 | 0.00 | 58 | 1016.3 |
| 20260504040457 | 48 | 138 | 0.0 | 2.0 | 0.00 | 0.00 | 0.00 | 58 | 1016.3 |
| 20260504035958 | 49 | 138 | 1.0 | 2.0 | 0.00 | 0.00 | 0.00 | 58 | 1016.3 |
| 20260504035455 | 49 | 138 | 0.0 | 3.0 | 0.00 | 0.00 | 0.00 | 55 | 1016.2 |
| 20260504034956 | 49 | 138 | 1.0 | 3.0 | 0.00 | 0.00 | 0.00 | 55 | 1016.1 |
| 20260504034456 | 51 | 138 | 1.0 | 3.0 | 0.00 | 0.00 | 0.00 | 52 | 1016.1 |
| 20260504033957 | 51 | 138 | 3.0 | 3.0 | 0.00 | 0.00 | 0.00 | 52 | 1016.0 |
| 20260504033457 | 51 | 138 | 0.0 | 5.0 | 0.00 | 0.00 | 0.00 | 52 | 1016.0 |
| 20260504032956 | 51 | 138 | 4.0 | 5.0 | 0.00 | 0.00 | 0.00 | 53 | 1015.8 |
| 20260504031958 | 51 | 243 | 0.0 | 4.0 | 0.00 | 0.00 | 0.00 | 53 | 1015.7 |
| 20260504031456 | 52 | 243 | 0.0 | 3.0 | 0.00 | 0.00 | 0.00 | 53 | 1015.6 |
| 20260504030954 | 51 | 243 | 0.0 | 5.0 | 0.00 | 0.00 | 0.00 | 50 | 1015.7 |
| 20260504030455 | 51 | 243 | 2.0 | 5.0 | 0.00 | 0.00 | 0.00 | 53 | 1015.6 |
| 20260504025955 | 51 | 259 | 0.0 | 4.0 | 0.00 | 0.00 | 0.00 | 54 | 1015.6 |
| 20260504025455 | 52 | 259 | 0.0 | 4.0 | 0.00 | 0.00 | 0.00 | 54 | 1015.6 |
| 20260504024455 | 54 | 259 | 0.0 | 0.0 | 0.00 | 0.00 | 0.00 | 54 | 1015.5 |
| 20260504023955 | 55 | 259 | 0.0 | 2.0 | 0.00 | 0.00 | 0.00 | 53 | 1015.4 |
| 20260504023454 | 56 | 259 | 0.0 | 4.0 | 0.00 | 0.00 | 0.00 | 49 | 1015.4 |
| 20260504022955 | 57 | 259 | 3.0 | 4.0 | 0.00 | 0.00 | 0.00 | 46 | 1015.4 |
| 20260504022455 | 58 | 259 | 1.0 | 2.0 | 0.00 | 0.00 | 0.00 | 47 | 1015.3 |
| 20260504021454 | 59 | 259 | 0.0 | 2.0 | 0.00 | 0.00 | 0.00 | 45 | 1015.3 |
| 20260504020954 | 60 | 259 | 0.0 | 2.0 | 0.00 | 0.00 | 0.00 | 45 | 1015.3 |
| 20260504020454 | 61 | 259 | 0.0 | 2.0 | 0.00 | 0.00 | 0.00 | 46 | 1015.1 |
| 20260504015953 | 63 | 261 | 0.0 | 0.0 | 0.00 | 0.00 | 0.00 | 45 | 1015.3 |
| 20260504015455 | 65 | 261 | 0.0 | 0.0 | 0.00 | 0.00 | 0.00 | 36 | 1015.1 |
| 20260504014954 | 66 | 261 | 0.0 | 0.0 | 0.00 | 0.00 | 0.00 | 36 | 1015.1 |
| 20260504014455 | 67 | 261 | 0.0 | 0.0 | 0.00 | 0.00 | 0.00 | 28 | 1015.3 |
| 20260504013452 | 68 | 261 | 0.0 | 0.0 | 0.00 | 0.00 | 0.00 | 26 | 1015.4 |
| 20260504012953 | 68 | 261 | 0.0 | 0.0 | 0.00 | 0.00 | 0.00 | 30 | 1015.4 |
| 20260504011952 | 67 | 261 | 0.0 | 4.0 | 0.00 | 0.00 | 0.00 | 31 | 1015.5 |
| 20260504011454 | 67 | 261 | 1.0 | 5.0 | 0.00 | 0.00 | 0.00 | 32 | 1015.6 |
| 20260504010952 | 66 | 261 | 3.0 | 5.0 | 0.00 | 0.00 | 0.00 | 39 | 1015.6 |
| 20260504005953 | 66 | 261 | 4.0 | 10.0 | 0.00 | 0.00 | 0.00 | 38 | 1015.6 |
| 20260504005453 | 66 | 255 | 6.0 | 9.0 | 0.00 | 0.00 | 0.00 | 38 | 1015.7 |
| 20260504004453 | 67 | 288 | 4.0 | 7.0 | 0.00 | 0.00 | 0.00 | 31 | 1015.8 |
| 20260504002952 | 67 | 279 | 6.0 | 12.0 | 0.00 | 0.00 | 0.00 | 34 | 1016.0 |
| 20260504002453 | 67 | 299 | 6.0 | 11.0 | 0.00 | 0.00 | 0.00 | 36 | 1016.0 |
| 20260504001951 | 67 | 259 | 8.0 | 11.0 | 0.00 | 0.00 | 0.00 | 34 | 1016.1 |
| 20260504001452 | 68 | 272 | 3.0 | 7.0 | 0.00 | 0.00 | 0.00 | 32 | 1016.1 |
| 20260504000952 | 68 | 268 | 3.0 | 7.0 | 0.00 | 0.00 | 0.00 | 31 | 1016.2 |
| 20260504000452 | 68 | 293 | 4.0 | 7.0 | 0.00 | 0.00 | 0.00 | 31 | 1016.2 |
| 20260503235952 | 68 | 321 | 2.0 | 5.0 | 0.00 | 0.00 | 0.00 | 30 | 1016.3 |
| 20260503234952 | 68 | 285 | 5.0 | 9.0 | 0.00 | 0.00 | 0.00 | 35 | 1016.4 |
| 20260503234451 | 67 | 293 | 4.0 | 10.0 | 0.00 | 0.00 | 0.00 | 32 | 1016.4 |
| 20260503233951 | 67 | 269 | 7.0 | 12.0 | 0.00 | 0.00 | 0.00 | 33 | 1016.4 |
| 20260503233450 | 67 | 285 | 8.0 | 12.0 | 0.00 | 0.00 | 0.00 | 31 | 1016.6 |
| 20260503232951 | 67 | 279 | 7.0 | 13.0 | 0.00 | 0.00 | 0.00 | 30 | 1016.6 |
| 20260503232450 | 67 | 275 | 7.0 | 15.0 | 0.00 | 0.00 | 0.00 | 32 | 1016.6 |
| 20260503231951 | 67 | 262 | 9.0 | 15.0 | 0.00 | 0.00 | 0.00 | 36 | 1016.7 |
| 20260503230951 | 67 | 268 | 9.0 | 13.0 | 0.00 | 0.00 | 0.00 | 36 | 1016.8 |
| 20260503230449 | 67 | 285 | 9.0 | 13.0 | 0.00 | 0.00 | 0.00 | 36 | 1016.8 |
| 20260503225950 | 67 | 281 | 5.0 | 13.0 | 0.00 | 0.00 | 0.00 | 33 | 1016.9 |
| 20260503225449 | 67 | 257 | 5.0 | 13.0 | 0.00 | 0.00 | 0.00 | 37 | 1017.0 |
| 20260503224450 | 67 | 252 | 8.0 | 14.0 | 0.00 | 0.00 | 0.00 | 41 | 1017.0 |
| 20260503223949 | 67 | 271 | 8.0 | 13.0 | 0.00 | 0.00 | 0.00 | 36 | 1017.0 |
| 20260503223451 | 67 | 272 | 5.0 | 12.0 | 0.00 | 0.00 | 0.00 | 37 | 1017.3 |
| 20260503222948 | 67 | 269 | 7.0 | 11.0 | 0.00 | 0.00 | 0.00 | 36 | 1017.3 |
| 20260503222450 | 67 | 312 | 4.0 | 10.0 | 0.00 | 0.00 | 0.00 | 41 | 1017.4 |
| 20260503221950 | 67 | 283 | 6.0 | 15.0 | 0.00 | 0.00 | 0.00 | 35 | 1017.5 |
| 20260503220949 | 67 | 264 | 8.0 | 13.0 | 0.00 | 0.00 | 0.00 | 38 | 1017.6 |
| 20260503220448 | 67 | 233 | 6.0 | 17.0 | 0.00 | 0.00 | 0.00 | 39 | 1017.6 |
| 20260503215949 | 67 | 286 | 8.0 | 17.0 | 0.00 | 0.00 | 0.00 | 40 | 1017.7 |
| 20260503215448 | 67 | 238 | 7.0 | 12.0 | 0.00 | 0.00 | 0.00 | 43 | 1017.7 |
| 20260503214948 | 67 | 237 | 4.0 | 7.0 | 0.00 | 0.00 | 0.00 | 35 | 1018.0 |
| 20260503214449 | 67 | 310 | 3.0 | 10.0 | 0.00 | 0.00 | 0.00 | 38 | 1018.0 |
| 20260503213948 | 67 | 336 | 4.0 | 10.0 | 0.00 | 0.00 | 0.00 | 34 | 1018.1 |
| 20260503213447 | 66 | 275 | 3.0 | 9.0 | 0.00 | 0.00 | 0.00 | 43 | 1018.1 |
| 20260503212948 | 66 | 288 | 4.0 | 12.0 | 0.00 | 0.00 | 0.00 | 35 | 1018.2 |
| 20260503212446 | 66 | 240 | 4.0 | 14.0 | 0.00 | 0.00 | 0.00 | 36 | 1018.3 |
| 20260503211949 | 66 | 244 | 7.0 | 14.0 | 0.00 | 0.00 | 0.00 | 40 | 1018.4 |
| 20260503210948 | 66 | 278 | 9.0 | 13.0 | 0.00 | 0.00 | 0.00 | 35 | 1018.5 |
| 20260503210447 | 66 | 274 | 2.0 | 9.0 | 0.00 | 0.00 | 0.00 | 39 | 1018.7 |
| 20260503205948 | 66 | 272 | 6.0 | 10.0 | 0.00 | 0.00 | 0.00 | 41 | 1018.9 |
| 20260503205447 | 66 | 300 | 3.0 | 15.0 | 0.00 | 0.00 | 0.00 | 43 | 1018.9 |
| 20260503204447 | 65 | 231 | 5.0 | 13.0 | 0.00 | 0.00 | 0.00 | 40 | 1013.7 |
| 20260503203447 | 65 | 207 | 2.0 | 10.0 | 0.00 | 0.00 | 0.00 | 43 | 1015.6 |
| 20260503202946 | 65 | 264 | 6.0 | 13.0 | 0.00 | 0.00 | 0.00 | 43 | 1017.4 |
| 20260503202446 | 65 | 266 | 6.0 | 13.0 | 0.00 | 0.00 | 0.00 | 45 | 1017.7 |
| 20260503201945 | 65 | 306 | 4.0 | 7.0 | 0.00 | 0.00 | 0.00 | 37 | 1017.7 |
| 20260503201445 | 65 | 25 | 1.0 | 5.0 | 0.00 | 0.00 | 0.00 | 45 | 1017.0 |
| 20260503200946 | 65 | 227 | 2.0 | 6.0 | 0.00 | 0.00 | 0.00 | 39 | 1016.8 |
| 20260503200444 | 65 | 269 | 2.0 | 9.0 | 0.00 | 0.00 | 0.00 | 44 | 1017.6 |
| 20260503195945 | 65 | 282 | 4.0 | 9.0 | 0.00 | 0.00 | 0.00 | 38 | 1017.5 |
| 20260503195444 | 64 | 0 | 2.0 | 7.0 | 0.00 | 0.00 | 0.00 | 39 | 1018.1 |
| 20260503194945 | 65 | 298 | 4.0 | 9.0 | 0.00 | 0.00 | 0.00 | 41 | 1019.5 |
| 20260503194445 | 65 | 6 | 4.0 | 10.0 | 0.00 | 0.00 | 0.00 | 41 | 1019.6 |
| 20260503193944 | 64 | 10 | 5.0 | 10.0 | 0.00 | 0.00 | 0.00 | 45 | 1019.5 |
| 20260503193445 | 64 | 16 | 2.0 | 7.0 | 0.00 | 0.00 | 0.00 | 38 | 1020.5 |
| 20260503192444 | 64 | 289 | 6.0 | 12.0 | 0.00 | 0.00 | 0.00 | 41 | 1021.9 |
| 20260503191445 | 64 | 20 | 2.0 | 9.0 | 0.00 | 0.00 | 0.00 | 41 | 1022.2 |
| 20260503190944 | 63 | 0 | 4.0 | 9.0 | 0.00 | 0.00 | 0.00 | 39 | 1020.3 |
| 20260503185944 | 63 | 240 | 3.0 | 12.0 | 0.00 | 0.00 | 0.00 | 43 | 1022.1 |
| 20260503185444 | 63 | 286 | 7.0 | 12.0 | 0.00 | 0.00 | 0.00 | 43 | 1022.2 |
| 20260503184942 | 63 | 87 | 3.0 | 6.0 | 0.00 | 0.00 | 0.00 | 42 | 1021.4 |
| 20260503182942 | 63 | 337 | 4.0 | 6.0 | 0.00 | 0.00 | 0.00 | 43 | 1020.5 |
| 20260503182442 | 62 | 300 | 1.0 | 6.0 | 0.00 | 0.00 | 0.00 | 47 | 1020.7 |
| 20260503181442 | 62 | 31 | 6.0 | 10.0 | 0.00 | 0.00 | 0.00 | 47 | 1020.7 |
| 20260503180943 | 62 | 292 | 1.0 | 6.0 | 0.00 | 0.00 | 0.00 | 46 | 1020.8 |
| 20260503175443 | 61 | 13 | 4.0 | 9.0 | 0.00 | 0.00 | 0.00 | 47 | 1021.0 |
| 20260503174943 | 61 | 288 | 3.0 | 5.0 | 0.00 | 0.00 | 0.00 | 45 | 1021.0 |
| 20260503174444 | 61 | 23 | 2.0 | 6.0 | 0.00 | 0.00 | 0.00 | 46 | 1021.0 |
| 20260503173943 | 61 | 6 | 4.0 | 6.0 | 0.00 | 0.00 | 0.00 | 46 | 1021.1 |
| 20260503173442 | 61 | 11 | 3.0 | 7.0 | 0.00 | 0.00 | 0.00 | 47 | 1021.1 |